{"data":{"norad_id":56492,"intl_designator":"2023-064AW","name":"STARLINK-5846","alt_names":[],"object_type":"PAYLOAD","status":"ACTIVE","operator":null,"country":"US","launch_date":"2023-05-10","launch_site_code":"AFWTR","launch_vehicle":null,"mission":null,"orbit_class":"UNKNOWN","rcs_meters":null,"size_class":null,"mass_kg":null,"dimensions":null,"purposes":["comms"],"wikipedia_slug":null,"has_3d_model":false,"image_url":null,"decayed_at":null,"tle_current":{"epoch":"2026-09-20T13:34:04.491264Z","epoch_age_seconds":106375,"freshness":"FRESH","line1":"1 56492U 23064AW  26263.56532976  .00000330  00000+0  35462-4 0  9992","line2":"2 56492  70.0000 333.0801 0003803 274.2072  85.8652 14.98323335185426","mean_motion":14.98323335,"eccentricity":0.0003803,"inclination_deg":70,"raan_deg":333.0801,"arg_perigee_deg":274.2072,"mean_anomaly_deg":85.8652,"bstar":3.5462e-5,"rev_number":18542,"period_min":96.10742663899,"perigee_km":569.43333578872,"apogee_km":574.71966817833,"semimajor_km":6950.2135019835,"source":"CELESTRAK","updated_at":"2026-09-21T09:00:33.449907Z"}}}